Content
SEND FEEDBACK

Daily
Averages
Monthly
Summary
Philippines

ANGELES CITY, PHILIPPINES


Home > Asia > Philippines
Elevation: 490 feet     Latitude: 15 11N     Longitude: 120 33E

WEATHER
 
SELECT A DAY
Number of Records: 93,714;   Date Range: 2/13/97 - 8/28/14
 
SHARE

PRINT THIS DATA

[ ← Previous Day ]
WEATHER ALMANAC - JUNE 21, 2013
[ Next Day → ]
[ °C ]   °F
Weather ElementAverageHighLow
Temperature79.6 °F86 °F (12:00 pm)75.2 °F (12:20 am)
Dewpoint75.6 °F77 °F (8:00 am)73.4 °F (12:20 am)
Humidity88.2 %100 % (1:00 am)70 % (12:00 pm)
Barometer29.75 in29.83 in (10:00 pm)29.71 in (12:20 am)
Wind Speed9.9 mph16.1 mph (4:00 pm)
Wind Gust31.1 mph (10:00 am)
Weather ElementAverage
Visibility5.6 mi
Wind DirectionENE (81.7 °)

Weather ElementTotal
Precipitation---
Cooling Degree Days15.6 (Base 65)
Growing Degree Days30.6 (Base 50)
Averaged from 24 records on June 21, 2013
WEATHER CONDITIONS BREAKOUT
WIND DIRECTION BREAKOUT
WEATHER BY HOUR - JUNE 21, 2013
[ °C ]   °F
Local TimeTemperatureDewpointHumidityBarometerVisibilityWind DirectionWind SpeedGust SpeedPrecipitationEventsConditions
12:20 AM75.2 °F73.4 °F94 %29.71 in5.0 miSouth (190°)10.4 mph29.9 mphRainLight Rain
1:00 AM75.2 °F75.2 °F100 %29.74 in4.3 miVariable11.5 mphRainLight Rain
2:00 AM75.2 °F75.2 °F100 %29.71 in6.2 miVariable8.1 mphOvercast
3:00 AM75.2 °F75.2 °F100 %29.71 in6.2 miVariable10.4 mph28.8 mphOvercast
4:00 AM75.2 °F75.2 °F100 %29.71 in5.6 miVariable6.9 mphMostly Cloudy
5:00 AM75.2 °F75.2 °F100 %29.71 in5.6 miVariable6.9 mph21.9 mphMostly Cloudy
6:00 AM77.0 °F75.2 °F94 %29.74 in5.0 miSSE (160°)6.9 mphMostly Cloudy
7:00 AM77.0 °F75.2 °F94 %29.74 in4.3 miSouth (180°)9.2 mphRainLight Rain Showers
8:00 AM77.0 °F77.0 °F100 %29.80 in5.6 miSouth (180°)9.2 mphMostly Cloudy
9:00 AM80.6 °F77.0 °F89 %29.77 in5.6 miVariable8.1 mph28.8 mphMostly Cloudy
10:00 AM82.4 °F77.0 °F84 %29.80 in5.6 miSSE (160°)8.1 mph31.1 mphMostly Cloudy
11:00 AM84.2 °F77.0 °F79 %29.77 in5.6 miVariable10.4 mphOvercast
12:00 PM86.0 °F75.2 °F70 %29.74 in5.6 miSouth (170°)15.0 mphOvercast
1:00 PM84.2 °F77.0 °F79 %29.74 in6.2 miVariable13.8 mphOvercast
2:00 PM86.0 °F77.0 °F74 %29.71 in6.2 miVariable13.8 mphMostly Cloudy
3:00 PM86.0 °F75.2 °F70 %29.71 in6.2 miSSE (160°)13.8 mphMostly Cloudy
4:00 PM84.2 °F75.2 °F74 %29.71 in6.2 miSSW (200°)16.1 mphMostly Cloudy
5:00 PM84.2 °F73.4 °F70 %29.71 in6.2 miSouth (190°)13.8 mphMostly Cloudy
6:00 PM82.4 °F75.2 °F79 %29.74 in6.2 miVariable6.9 mphMostly Cloudy
7:00 PM80.6 °F75.2 °F84 %29.74 in5.6 miVariable6.9 mphOvercast
8:00 PM78.8 °F77.0 °F94 %29.77 in5.0 miVariable9.2 mphMostly Cloudy
9:00 PM78.8 °F77.0 °F94 %29.80 in5.0 miVariable8.1 mphRainLight Rain Showers
10:00 PM75.2 °F73.4 °F94 %29.83 in5.0 miSouth (180°)8.1 mphRainLight Rain
11:00 PM75.2 °F75.2 °F100 %29.83 in5.6 miSouth (190°)6.9 mphMostly Cloudy
Hourly data recorded from RPLC, located miles away from Angeles City, Philippines







STORIES FROM OUR PARTNERS